Simultaneous Nadir Overpasses (SNOs) Predictions

Prediction of SNOs between METOP-B and NOAA-19 Satellite Orbit:

Table of predicted SNOs for the next 14.0 days since TLE Epoch: 7/27/2015
Index Date (METOP-B) Time (METOP-B) Lat,Lon (METOP-B) SZA (METOP-B ) Date (NOAA-19) Time (NOAA-19) Lat,Lon (NOAA-19) SZA (NOAA-19 ) Distance(km) Time Diff (sec)
1 08/03/2015 04:48:13 -75.10, -74.22 122.54 08/03/2015 04:47:02 -75.10, -74.29 122.53 2.02 71
2 08/03/2015 05:38:53 75.07, 93.05 57.45 08/03/2015 05:38:00 75.08, 93.03 57.46 0.73 53
3 08/03/2015 06:29:35 -75.08, -99.62 122.54 08/03/2015 06:29:04 -75.07, -99.72 122.54 2.75 31
4 08/03/2015 07:20:15 75.05, 67.65 57.45 08/03/2015 07:20:02 75.05, 67.60 57.45 1.17 13
5 08/03/2015 08:10:57 -75.05,-125.02 122.54 08/03/2015 08:11:06 -75.05,-125.15 122.55 3.67 9
6 08/03/2015 09:01:37 75.03, 42.25 57.45 08/03/2015 09:02:04 75.03, 42.18 57.44 2.11 27
7 08/03/2015 09:52:20 -74.99,-150.56 122.59 08/03/2015 09:53:08 -75.02,-150.57 122.56 3.75 48
8 08/03/2015 10:42:59 75.01, 16.85 57.45 08/03/2015 10:44:06 75.00, 16.75 57.43 3.14 67
9 08/03/2015 11:33:53 -74.43,-177.40 123.09 08/03/2015 11:34:59 -74.48,-174.52 123.11 85.92 66




NCC Satellite Simultaneous Nadir Overpasses (SNOs) Prediction Service
